"Data set title: Gaging station water sample data. Usage: Event based table used with water chemistry collection from 01-Oct-2015 to 30-Sep-2016",,,,,,,,,,,,
,,,,,,,,,,,,,
"Site","Date","RecNum","SiteID","Flag_SiteID","LOGGERID","PROGID","VNOTCH_INST_0_0_01","Flag_VNOTCH_INST_0_0_01","SAMPLE_INST_0_0_01","Flag_SAMPLE_INST_0_0_01","STAGE_INST_0_0_01","Flag_STAGE_INST_0_0_01"
"","yyyy-MM-dd HH:mm:ss","count","","none","none","none","none","none","count","none","ft","none"
"nominal","datetime","nominal","data","code","nominal","nominal","data","code","data","code","data","code"
"GSWS06_118",2015-10-01 11:00:45,20,106.00,"",118,25093.0,0,"",5,"",0.0100,""
"GSWS06_118",2015-10-02 13:36:45,21,106.00,"",118,25093.0,0,"",6,"",0.0100,""
"GSWS06_118",2015-10-06 10:42:45,22,106.00,"",118,25093.0,0,"",7,"",0.0130,""
"GSWS06_118",2015-10-11 10:24:45,23,106.00,"",118,25093.0,0,"",1,"",0.0140,""
"GSWS06_118",2015-10-12 13:00:45,24,106.00,"",118,25093.0,0,"",2,"",0.0120,""
"GSWS06_118",2015-10-22 12:24:45,25,106.00,"",118,25093.0,0,"",3,"",0.0100,""
"GSWS06_118",2015-10-27 12:06:45,26,106.00,"",118,25093.0,0,"",4,"",0.0140,""
"GSWS06_118",2015-11-06 11:30:45,27,106.00,"",118,25093.0,0,"",5,"",0.0180,""
"GSWS06_118",2016-02-29 16:30:30,28,106.00,"",118,25093.0,0,"",1,"",0.2070,""
"GSWS06_118",2016-03-01 05:48:30,29,106.00,"",118,25093.0,0,"",1,"",0.2110,""
"GSWS06_118",2016-03-01 19:06:30,30,106.00,"",118,25093.0,0,"",2,"",0.2280,""
"GSWS06_118",2016-03-02 08:24:30,31,106.00,"",118,25093.0,0,"",3,"",0.2240,""
"GSWS06_118",2016-03-02 21:42:30,32,106.00,"",118,25093.0,0,"",4,"",0.2290,""
"GSWS06_118",2016-03-03 11:00:30,33,106.00,"",118,25093.0,0,"",5,"",0.2380,""
"GSWS06_118",2016-03-04 00:18:30,34,106.00,"",118,25093.0,0,"",6,"",0.2350,""
"GSWS06_118",2016-03-04 13:36:30,35,106.00,"",118,25093.0,0,"",7,"",0.2330,""
"GSWS06_118",2016-03-05 02:54:30,36,106.00,"",118,25093.0,0,"",8,"",0.2320,""
"GSWS06_118",2016-03-05 16:12:30,37,106.00,"",118,25093.0,0,"",9,"",0.2300,""
"GSWS06_118",2016-03-06 05:30:30,38,106.00,"",118,25093.0,0,"",10,"",0.2380,""
"GSWS06_118",2016-03-06 18:48:30,39,106.00,"",118,25093.0,0,"",11,"",0.2310,""
"GSWS06_118",2016-03-07 08:06:30,40,106.00,"",118,25093.0,0,"",12,"",0.2280,""
"GSWS06_118",2016-03-07 21:24:30,41,106.00,"",118,25093.0,0,"",13,"",0.2260,""
"GSWS06_118",2016-03-08 10:42:30,42,106.00,"",118,25093.0,0,"",14,"",0.2240,""
"GSWS06_118",2016-03-09 00:00:30,43,106.00,"",118,25093.0,0,"",15,"",0.2240,""
"GSWS06_118",2016-03-09 13:18:30,44,106.00,"",118,25093.0,0,"",16,"",0.2470,""
"GSWS06_118",2016-03-10 02:36:30,45,106.00,"",118,25093.0,0,"",17,"",0.2580,""
"GSWS06_118",2016-03-10 15:54:30,46,106.00,"",118,25093.0,0,"",18,"",0.2910,""
"GSWS06_118",2016-03-11 05:12:30,47,106.00,"",118,25093.0,0,"",19,"",0.2960,""
"GSWS06_118",2016-03-11 18:30:30,48,106.00,"",118,25093.0,0,"",20,"",0.2960,""
"GSWS06_118",2016-03-12 07:48:30,49,106.00,"",118,25093.0,0,"",21,"",0.2960,""
"GSWS06_118",2016-03-12 21:06:30,50,106.00,"",118,25093.0,0,"",22,"",0.2970,""
"GSWS06_118",2016-03-13 10:24:30,51,106.00,"",118,25093.0,0,"",23,"",0.3240,""
"GSWS06_118",2016-03-13 17:02:30,52,106.00,"",118,25093.0,0,"",24,"",0.3760,""
"GSWS06_118",2016-03-13 23:40:30,53,106.00,"",118,25093.0,0,"",25,"",0.4210,""
"GSWS06_118",2016-03-14 06:18:30,54,106.00,"",118,25093.0,0,"",26,"",0.4310,""
"GSWS06_118",2016-03-14 12:56:30,55,106.00,"",118,25093.0,0,"",27,"",0.4250,""
"GSWS06_118",2016-03-14 19:34:30,56,106.00,"",118,25093.0,0,"",28,"",0.4090,""
"GSWS06_118",2016-03-15 02:12:30,57,106.00,"",118,25093.0,0,"",29,"",0.3950,""
"GSWS06_118",2016-03-15 08:50:30,58,106.00,"",118,25093.0,0,"",30,"",0.3880,""
"GSWS06_118",2016-03-15 15:28:30,59,106.00,"",118,25093.0,0,"",31,"",0.3720,""
"GSWS06_118",2016-03-15 22:06:30,60,106.00,"",118,25093.0,0,"",32,"",0.3630,""
"GSWS06_118",2016-03-16 04:44:30,61,106.00,"",118,25093.0,0,"",33,"",0.3640,""
"GSWS06_118",2016-03-16 11:22:30,62,106.00,"",118,25093.0,0,"",34,"",0.3620,""
"GSWS06_118",2016-03-16 18:00:30,63,106.00,"",118,25093.0,0,"",35,"",0.3580,""
"GSWS06_118",2016-03-17 00:38:30,64,106.00,"",118,25093.0,0,"",36,"",0.3550,""
"GSWS06_118",2016-03-17 07:16:30,65,106.00,"",118,25093.0,0,"",37,"",0.3550,""
"GSWS06_118",2016-03-17 13:54:30,66,106.00,"",118,25093.0,0,"",38,"",0.3550,""
"GSWS06_118",2016-03-17 20:32:30,67,106.00,"",118,25093.0,0,"",39,"",0.3550,""
"GSWS06_118",2016-03-18 03:10:30,68,106.00,"",118,25093.0,0,"",40,"",0.3550,""
"GSWS06_118",2016-03-18 09:48:30,69,106.00,"",118,25093.0,0,"",41,"",0.3540,""
"GSWS06_118",2016-03-18 16:26:30,70,106.00,"",118,25093.0,0,"",42,"",0.3530,""
"GSWS06_118",2016-03-18 23:04:30,71,106.00,"",118,25093.0,0,"",43,"",0.3550,""
"GSWS06_118",2016-03-19 05:42:30,72,106.00,"",118,25093.0,0,"",44,"",0.3550,""
"GSWS06_118",2016-03-19 12:20:30,73,106.00,"",118,25093.0,0,"",45,"",0.3570,""
"GSWS06_118",2016-03-19 18:58:30,74,106.00,"",118,25093.0,0,"",46,"",0.3720,""
"GSWS06_118",2016-03-20 01:36:30,75,106.00,"",118,25093.0,0,"",47,"",0.3840,""
"GSWS06_118",2016-03-20 08:14:30,76,106.00,"",118,25093.0,0,"",48,"",0.4000,""
"GSWS06_118",2016-03-20 14:52:30,77,106.00,"",118,25093.0,0,"",49,"",0.4300,""
"GSWS06_118",2016-03-20 21:30:30,78,106.00,"",118,25093.0,0,"",50,"",0.4340,""
"GSWS06_118",2016-03-21 04:08:30,79,106.00,"",118,25093.0,0,"",51,"",0.4390,""
"GSWS06_118",2016-03-21 10:46:30,80,106.00,"",118,25093.0,0,"",52,"",0.4400,""
"GSWS06_118",2016-03-21 17:24:30,81,106.00,"",118,25093.0,0,"",53,"",0.4380,""
"GSWS06_118",2016-03-22 00:02:30,82,106.00,"",118,25093.0,0,"",54,"",0.4330,""
"GSWS06_118",2016-03-22 06:40:30,83,106.00,"",118,25093.0,0,"",55,"",0.4230,""
"GSWS06_118",2016-03-22 13:18:30,84,106.00,"",118,25093.0,0,"",56,"",0.4190,""
"GSWS06_118",2016-03-22 14:41:15,85,106.00,"",118,25093.0,0,"",57,"",0.4230,""
"GSWS06_118",2016-03-22 19:56:30,86,106.00,"",118,25093.0,0,"",1,"",0.4140,""
"GSWS06_118",2016-03-23 02:34:30,87,106.00,"",118,25093.0,0,"",2,"",0.4050,""
"GSWS06_118",2016-03-23 09:12:30,88,106.00,"",118,25093.0,0,"",3,"",0.3960,""
"GSWS06_118",2016-03-23 15:50:30,89,106.00,"",118,25093.0,0,"",4,"",0.3890,""
"GSWS06_118",2016-03-23 22:28:30,90,106.00,"",118,25093.0,0,"",5,"",0.3870,""
"GSWS06_118",2016-03-24 05:06:30,91,106.00,"",118,25093.0,0,"",6,"",0.3960,""
"GSWS06_118",2016-03-24 11:44:30,92,106.00,"",118,25093.0,0,"",7,"",0.3900,""
"GSWS06_118",2016-03-24 18:22:30,93,106.00,"",118,25093.0,0,"",8,"",0.3890,""
"GSWS06_118",2016-03-25 01:00:30,94,106.00,"",118,25093.0,0,"",9,"",0.3870,""
"GSWS06_118",2016-03-25 07:38:30,95,106.00,"",118,25093.0,0,"",10,"",0.3810,""
"GSWS06_118",2016-03-25 14:16:30,96,106.00,"",118,25093.0,0,"",11,"",0.3760,""
"GSWS06_118",2016-03-25 20:54:30,97,106.00,"",118,25093.0,0,"",12,"",0.3660,""
"GSWS06_118",2016-03-26 03:32:30,98,106.00,"",118,25093.0,0,"",13,"",0.3570,""
"GSWS06_118",2016-03-26 16:50:30,99,106.00,"",118,25093.0,0,"",14,"",0.3410,""
"GSWS06_118",2016-03-27 06:08:30,100,106.00,"",118,25093.0,0,"",15,"",0.3340,""
"GSWS06_118",2016-03-27 19:26:30,101,106.00,"",118,25093.0,0,"",16,"",0.3220,""
"GSWS06_118",2016-03-28 08:44:30,102,106.00,"",118,25093.0,0,"",17,"",0.3120,""
"GSWS06_118",2016-03-28 22:02:30,103,106.00,"",118,25093.0,0,"",18,"",0.3080,""
"GSWS06_118",2016-03-29 11:20:30,104,106.00,"",118,25093.0,0,"",19,"",0.3010,""
"GSWS06_118",2016-03-30 00:38:30,105,106.00,"",118,25093.0,0,"",20,"",0.2920,""
"GSWS06_118",2016-03-30 13:56:30,106,106.00,"",118,25093.0,0,"",21,"",0.2920,""
"GSWS06_118",2016-03-31 03:14:30,107,106.00,"",118,25093.0,0,"",22,"",0.2790,""
"GSWS06_118",2016-03-31 16:32:30,108,106.00,"",118,25093.0,0,"",23,"",0.2640,""
"GSWS06_118",2016-04-01 05:50:30,109,106.00,"",118,25093.0,0,"",24,"",0.2530,""
"GSWS06_118",2016-04-01 19:08:30,110,106.00,"",118,25093.0,0,"",25,"",0.2410,""
"GSWS06_118",2016-04-02 08:26:30,111,106.00,"",118,25093.0,0,"",26,"",0.2330,""
"GSWS06_118",2016-04-02 21:44:30,112,106.00,"",118,25093.0,0,"",27,"",0.2240,""
"GSWS06_118",2016-04-03 11:02:30,113,106.00,"",118,25093.0,0,"",28,"",0.2150,""
"GSWS06_118",2016-04-04 00:20:30,114,106.00,"",118,25093.0,0,"",29,"",0.2110,""
"GSWS06_118",2016-04-04 13:38:30,115,106.00,"",118,25093.0,0,"",30,"",0.2080,""
"GSWS06_118",2016-04-05 02:56:30,116,106.00,"",118,25093.0,0,"",31,"",0.2000,""
"GSWS06_118",2016-04-05 16:14:30,117,106.00,"",118,25093.0,0,"",32,"",0.1920,""
"GSWS06_118",2016-04-06 05:32:30,118,106.00,"",118,25093.0,0,"",33,"",0.1850,""
"GSWS06_118",2016-04-06 18:50:30,119,106.00,"",118,25093.0,0,"",34,"",0.1790,""
"GSWS06_118",2016-04-07 08:08:30,120,106.00,"",118,25093.0,0,"",35,"",0.1760,""
"GSWS06_118",2016-04-07 21:26:30,121,106.00,"",118,25093.0,0,"",36,"",0.1690,""
"GSWS06_118",2016-04-08 10:44:30,122,106.00,"",118,25093.0,0,"",37,"",0.1650,""
"GSWS06_118",2016-04-09 00:02:30,123,106.00,"",118,25093.0,0,"",38,"",0.1640,""
"GSWS06_118",2016-04-09 13:20:30,124,106.00,"",118,25093.0,0,"",39,"",0.1620,""
"GSWS06_118",2016-04-10 02:38:30,125,106.00,"",118,25093.0,0,"",40,"",0.1590,""
"GSWS06_118",2016-04-10 15:56:30,126,106.00,"",118,25093.0,0,"",41,"",0.1530,""
"GSWS06_118",2016-04-11 05:14:30,127,106.00,"",118,25093.0,0,"",42,"",0.1500,""
"GSWS06_118",2016-04-11 18:32:30,128,106.00,"",118,25093.0,0,"",43,"",0.1460,""
"GSWS06_118",2016-04-12 07:50:30,129,106.00,"",118,25093.0,0,"",44,"",0.1430,""
"GSWS06_118",2016-04-12 21:08:30,130,106.00,"",118,25093.0,0,"",45,"",0.1430,""
"GSWS06_118",2016-04-13 10:26:30,131,106.00,"",118,25093.0,0,"",46,"",0.1410,""
"GSWS06_118",2016-04-13 16:20:15,132,106.00,"",118,25093.0,0,"",47,"",0.1390,""
"GSWS06_118",2016-04-13 23:44:30,133,106.00,"",118,25093.0,0,"",1,"",0.1390,""
"GSWS06_118",2016-04-14 13:02:30,134,106.00,"",118,25093.0,0,"",2,"",0.1690,""
"GSWS06_118",2016-04-15 02:20:30,135,106.00,"",118,25093.0,0,"",3,"",0.1740,""
"GSWS06_118",2016-04-15 15:38:30,136,106.00,"",118,25093.0,0,"",4,"",0.1620,""
"GSWS06_118",2016-04-16 04:56:30,137,106.00,"",118,25093.0,0,"",5,"",0.1640,""
"GSWS06_118",2016-04-16 18:14:30,138,106.00,"",118,25093.0,0,"",6,"",0.1640,""
"GSWS06_118",2016-04-17 07:32:30,139,106.00,"",118,25093.0,0,"",7,"",0.1660,""
"GSWS06_118",2016-04-17 20:50:30,140,106.00,"",118,25093.0,0,"",8,"",0.1630,""
"GSWS06_118",2016-04-18 10:08:30,141,106.00,"",118,25093.0,0,"",9,"",0.1610,""
"GSWS06_118",2016-04-18 23:26:30,142,106.00,"",118,25093.0,0,"",10,"",0.1600,""
"GSWS06_118",2016-04-19 12:44:30,143,106.00,"",118,25093.0,0,"",11,"",0.1580,""
"GSWS06_118",2016-04-20 02:02:30,144,106.00,"",118,25093.0,0,"",12,"",0.1560,""
"GSWS06_118",2016-04-20 15:20:30,145,106.00,"",118,25093.0,0,"",13,"",0.1510,""
"GSWS06_118",2016-04-21 04:38:30,146,106.00,"",118,25093.0,0,"",14,"",0.1500,""
"GSWS06_118",2016-04-21 17:56:30,147,106.00,"",118,25093.0,0,"",15,"",0.1470,""
"GSWS06_118",2016-04-22 07:14:30,148,106.00,"",118,25093.0,0,"",16,"",0.1450,""
"GSWS06_118",2016-04-22 20:32:30,149,106.00,"",118,25093.0,0,"",17,"",0.1410,""
"GSWS06_118",2016-04-23 09:50:30,150,106.00,"",118,25093.0,0,"",18,"",0.1390,""
"GSWS06_118",2016-04-23 23:08:30,151,106.00,"",118,25093.0,0,"",19,"",0.1430,""
"GSWS06_118",2016-04-24 12:26:30,152,106.00,"",118,25093.0,0,"",20,"",0.1520,""
"GSWS06_118",2016-04-25 01:44:30,153,106.00,"",118,25093.0,0,"",21,"",0.1480,""
"GSWS06_118",2016-04-25 15:02:30,154,106.00,"",118,25093.0,0,"",22,"",0.1430,""
"GSWS06_118",2016-04-26 04:20:30,155,106.00,"",118,25093.0,0,"",23,"",0.1400,""
"GSWS06_118",2016-04-26 17:38:30,156,106.00,"",118,25093.0,0,"",24,"",0.1380,""
"GSWS06_118",2016-04-27 06:56:30,157,106.00,"",118,25093.0,0,"",25,"",0.1380,""
"GSWS06_118",2016-04-27 20:14:30,158,106.00,"",118,25093.0,0,"",26,"",0.1370,""
"GSWS06_118",2016-04-28 09:32:30,159,106.00,"",118,25093.0,0,"",27,"",0.1350,""
"GSWS06_118",2016-04-28 22:50:30,160,106.00,"",118,25093.0,0,"",28,"",0.1330,""
"GSWS06_118",2016-04-29 12:08:30,161,106.00,"",118,25093.0,0,"",29,"",0.1320,""
"GSWS06_118",2016-04-30 01:26:30,162,106.00,"",118,25093.0,0,"",30,"",0.1300,""
"GSWS06_118",2016-04-30 14:44:30,163,106.00,"",118,25093.0,0,"",31,"",0.1280,""
"GSWS06_118",2016-05-01 04:02:30,164,106.00,"",118,25093.0,0,"",32,"",0.1270,""
"GSWS06_118",2016-05-01 17:20:30,165,106.00,"",118,25093.0,0,"",33,"",0.1240,""
"GSWS06_118",2016-05-02 06:38:30,166,106.00,"",118,25093.0,0,"",34,"",0.1240,""
"GSWS06_118",2016-05-02 19:56:30,167,106.00,"",118,25093.0,0,"",35,"",0.1210,""
"GSWS06_118",2016-05-03 09:14:30,168,106.00,"",118,25093.0,0,"",36,"",0.1210,""
"GSWS06_118",2016-05-03 22:32:30,169,106.00,"",118,25093.0,0,"",37,"",0.1220,""
"GSWS06_118",2016-05-04 11:50:30,170,106.00,"",118,25093.0,0,"",38,"",0.1200,""
"GSWS06_118",2016-05-05 01:08:30,171,106.00,"",118,25093.0,0,"",1,"",0.1180,""
"GSWS06_118",2016-05-05 14:26:30,172,106.00,"",118,25093.0,0,"",2,"",0.1160,""
"GSWS06_118",2016-05-06 03:44:30,173,106.00,"",118,25093.0,0,"",3,"",0.1150,""
"GSWS06_118",2016-05-06 17:02:30,174,106.00,"",118,25093.0,0,"",4,"",0.1110,""
"GSWS06_118",2016-05-07 06:20:30,175,106.00,"",118,25093.0,0,"",5,"",0.1110,""
"GSWS06_118",2016-05-07 19:38:30,176,106.00,"",118,25093.0,0,"",6,"",0.1090,""
"GSWS06_118",2016-05-08 08:56:30,177,106.00,"",118,25093.0,0,"",7,"",0.1090,""
"GSWS06_118",2016-05-08 22:14:30,178,106.00,"",118,25093.0,0,"",8,"",0.1070,""
"GSWS06_118",2016-05-09 11:32:30,179,106.00,"",118,25093.0,0,"",9,"",0.1050,""
"GSWS06_118",2016-05-10 00:50:30,180,106.00,"",118,25093.0,0,"",10,"",0.1040,""
"GSWS06_118",2016-05-10 14:08:30,181,106.00,"",118,25093.0,0,"",11,"",0.1020,""
"GSWS06_118",2016-05-11 03:26:30,182,106.00,"",118,25093.0,0,"",12,"",0.1020,""
"GSWS06_118",2016-05-11 16:44:30,183,106.00,"",118,25093.0,0,"",13,"",0.1000,""
"GSWS06_118",2016-05-12 06:02:30,184,106.00,"",118,25093.0,0,"",14,"",0.1000,""
"GSWS06_118",2016-05-12 19:20:30,185,106.00,"",118,25093.0,0,"",15,"",0.0980,""
"GSWS06_118",2016-05-13 08:38:30,186,106.00,"",118,25093.0,0,"",16,"",0.0980,""
"GSWS06_118",2016-05-13 21:56:30,187,106.00,"",118,25093.0,0,"",17,"",0.0960,""
"GSWS06_118",2016-05-14 11:14:30,188,106.00,"",118,25093.0,0,"",18,"",0.0970,""
"GSWS06_118",2016-05-15 00:32:30,189,106.00,"",118,25093.0,0,"",19,"",0.0960,""
"GSWS06_118",2016-05-15 13:50:30,190,106.00,"",118,25093.0,0,"",20,"",0.0980,""
"GSWS06_118",2016-05-16 03:08:30,191,106.00,"",118,25093.0,0,"",21,"",0.0960,""
"GSWS06_118",2016-05-16 16:26:30,192,106.00,"",118,25093.0,0,"",22,"",0.0940,""
"GSWS06_118",2016-05-17 05:44:30,193,106.00,"",118,25093.0,0,"",23,"",0.0930,""
"GSWS06_118",2016-05-17 19:02:30,194,106.00,"",118,25093.0,0,"",24,"",0.0900,""
"GSWS06_118",2016-05-18 08:20:30,195,106.00,"",118,25093.0,0,"",25,"",0.0900,""
"GSWS06_118",2016-05-18 21:38:30,196,106.00,"",118,25093.0,0,"",26,"",0.0880,""
"GSWS06_118",2016-05-19 10:56:30,197,106.00,"",118,25093.0,0,"",27,"",0.0880,""
"GSWS06_118",2016-05-20 00:14:30,198,106.00,"",118,25093.0,0,"",28,"",0.0910,""
"GSWS06_118",2016-05-20 13:32:30,199,106.00,"",118,25093.0,0,"",29,"",0.0890,""
"GSWS06_118",2016-05-21 02:50:30,200,106.00,"",118,25093.0,0,"",30,"",0.0900,""
"GSWS06_118",2016-05-21 16:08:30,201,106.00,"",118,25093.0,0,"",31,"",0.0900,""
"GSWS06_118",2016-05-22 05:26:30,202,106.00,"",118,25093.0,0,"",32,"",0.0900,""
"GSWS06_118",2016-05-22 18:44:30,203,106.00,"",118,25093.0,0,"",33,"",0.0900,""
"GSWS06_118",2016-05-23 08:02:30,204,106.00,"",118,25093.0,0,"",34,"",0.0920,""
"GSWS06_118",2016-05-23 21:20:30,205,106.00,"",118,25093.0,0,"",35,"",0.0880,""
"GSWS06_118",2016-05-24 10:38:30,206,106.00,"",118,25093.0,0,"",36,"",0.0860,""
"GSWS06_118",2016-05-24 23:56:30,207,106.00,"",118,25093.0,0,"",37,"",0.0850,""
"GSWS06_118",2016-05-25 13:14:30,208,106.00,"",118,25093.0,0,"",38,"",0.0840,""
"GSWS06_118",2016-05-25 14:50:45,209,106.00,"",118,25093.0,0,"",39,"",0.0830,""
"GSWS06_118",2016-05-25 14:51:15,210,106.00,"",118,25093.0,0,"",40,"",0.0830,""
"GSWS06_118",2016-05-26 04:50:45,0,106.00,"",118,54558.0,0,"",1,"",0.0820,""
"GSWS06_118",2016-05-26 18:08:45,1,106.00,"",118,54558.0,0,"",2,"",0.0800,""
"GSWS06_118",2016-05-27 07:26:45,2,106.00,"",118,54558.0,0,"",3,"",0.0790,""
"GSWS06_118",2016-05-27 20:44:45,3,106.00,"",118,54558.0,0,"",4,"",0.0780,""
"GSWS06_118",2016-05-28 10:02:45,4,106.00,"",118,54558.0,0,"",5,"",0.0780,""
"GSWS06_118",2016-05-28 23:20:45,5,106.00,"",118,54558.0,0,"",6,"",0.0760,""
"GSWS06_118",2016-05-29 12:38:45,6,106.00,"",118,54558.0,0,"",7,"",0.0750,""
"GSWS06_118",2016-05-30 01:56:45,7,106.00,"",118,54558.0,0,"",8,"",0.0750,""
"GSWS06_118",2016-05-30 15:14:45,8,106.00,"",118,54558.0,0,"",9,"",0.0730,""
"GSWS06_118",2016-05-31 04:32:45,9,106.00,"",118,54558.0,0,"",10,"",0.0730,""
"GSWS06_118",2016-05-31 17:50:45,10,106.00,"",118,54558.0,0,"",11,"",0.0710,""
"GSWS06_118",2016-06-01 07:08:45,11,106.00,"",118,54558.0,0,"",12,"",0.0710,""
"GSWS06_118",2016-06-01 20:26:45,12,106.00,"",118,54558.0,0,"",13,"",0.0690,""
"GSWS06_118",2016-06-02 09:44:45,13,106.00,"",118,54558.0,0,"",14,"",0.0690,""
"GSWS06_118",2016-06-02 23:02:45,14,106.00,"",118,54558.0,0,"",15,"",0.0690,""
"GSWS06_118",2016-06-03 12:20:45,15,106.00,"",118,54558.0,0,"",16,"",0.0670,""
"GSWS06_118",2016-06-04 01:38:45,16,106.00,"",118,54558.0,0,"",17,"",0.0670,""
"GSWS06_118",2016-06-04 14:56:45,17,106.00,"",118,54558.0,0,"",18,"",0.0640,""
"GSWS06_118",2016-06-05 04:14:45,18,106.00,"",118,54558.0,0,"",19,"",0.0640,""
"GSWS06_118",2016-06-05 17:32:45,19,106.00,"",118,54558.0,0,"",20,"",0.0630,""
"GSWS06_118",2016-06-06 06:50:45,20,106.00,"",118,54558.0,0,"",21,"",0.0630,""
"GSWS06_118",2016-06-06 20:08:45,21,106.00,"",118,54558.0,0,"",22,"",0.0620,""
"GSWS06_118",2016-06-07 09:26:45,22,106.00,"",118,54558.0,0,"",23,"",0.0620,""
"GSWS06_118",2016-06-07 22:44:45,23,106.00,"",118,54558.0,0,"",24,"",0.0600,""
"GSWS06_118",2016-06-08 12:02:45,24,106.00,"",118,54558.0,0,"",25,"",0.0600,""
"GSWS06_118",2016-06-09 01:20:45,25,106.00,"",118,54558.0,0,"",26,"",0.0600,""
"GSWS06_118",2016-06-09 14:38:45,26,106.00,"",118,54558.0,0,"",27,"",0.0590,""
"GSWS06_118",2016-06-10 03:56:45,27,106.00,"",118,54558.0,0,"",28,"",0.0600,""
"GSWS06_118",2016-06-10 17:14:45,28,106.00,"",118,54558.0,0,"",29,"",0.0590,""
"GSWS06_118",2016-06-11 06:32:45,29,106.00,"",118,54558.0,0,"",30,"",0.0600,""
"GSWS06_118",2016-06-11 19:50:45,30,106.00,"",118,54558.0,0,"",31,"",0.0580,""
"GSWS06_118",2016-06-12 09:08:45,31,106.00,"",118,54558.0,0,"",32,"",0.0580,""
"GSWS06_118",2016-06-12 22:26:45,32,106.00,"",118,54558.0,0,"",33,"",0.0560,""
"GSWS06_118",2016-06-13 11:44:45,33,106.00,"",118,54558.0,0,"",34,"",0.0560,""
"GSWS06_118",2016-06-14 01:02:45,34,106.00,"",118,54558.0,0,"",35,"",0.0560,""
"GSWS06_118",2016-06-14 14:20:45,35,106.00,"",118,54558.0,0,"",36,"",0.0600,""
"GSWS06_118",2016-06-15 03:38:45,36,106.00,"",118,54558.0,0,"",37,"",0.0630,""
"GSWS06_118",2016-06-15 16:56:45,37,106.00,"",118,54558.0,0,"",1,"",0.0590,""
"GSWS06_118",2016-06-16 06:14:45,38,106.00,"",118,54558.0,0,"",2,"",0.0610,""
"GSWS06_118",2016-06-16 19:32:45,39,106.00,"",118,54558.0,0,"",3,"",0.0580,""
"GSWS06_118",2016-06-17 08:50:45,40,106.00,"",118,54558.0,0,"",4,"",0.0580,""
"GSWS06_118",2016-06-17 22:08:45,41,106.00,"",118,54558.0,0,"",5,"",0.0570,""
"GSWS06_118",2016-06-18 11:26:45,42,106.00,"",118,54558.0,0,"",6,"",0.0570,""
"GSWS06_118",2016-06-19 00:44:45,43,106.00,"",118,54558.0,0,"",7,"",0.0560,""
"GSWS06_118",2016-06-19 14:02:45,44,106.00,"",118,54558.0,0,"",8,"",0.0540,""
"GSWS06_118",2016-06-20 03:20:45,45,106.00,"",118,54558.0,0,"",9,"",0.0540,""
"GSWS06_118",2016-06-20 16:38:45,46,106.00,"",118,54558.0,0,"",10,"",0.0520,""
"GSWS06_118",2016-06-21 05:56:45,47,106.00,"",118,54558.0,0,"",11,"",0.0520,""
"GSWS06_118",2016-06-21 19:14:45,48,106.00,"",118,54558.0,0,"",12,"",0.0500,""
"GSWS06_118",2016-06-22 08:32:45,49,106.00,"",118,54558.0,0,"",13,"",0.0520,""
"GSWS06_118",2016-06-22 21:50:45,50,106.00,"",118,54558.0,0,"",14,"",0.0500,""
"GSWS06_118",2016-06-23 11:08:45,51,106.00,"",118,54558.0,0,"",15,"",0.0500,""
"GSWS06_118",2016-06-24 00:26:45,52,106.00,"",118,54558.0,0,"",16,"",0.0500,""
"GSWS06_118",2016-06-24 13:44:45,53,106.00,"",118,54558.0,0,"",17,"",0.0500,""
"GSWS06_118",2016-06-25 03:02:45,54,106.00,"",118,54558.0,0,"",18,"",0.0490,""
"GSWS06_118",2016-06-25 16:20:45,55,106.00,"",118,54558.0,0,"",19,"",0.0480,""
"GSWS06_118",2016-06-26 05:38:45,56,106.00,"",118,54558.0,0,"",20,"",0.0480,""
"GSWS06_118",2016-06-26 18:56:45,57,106.00,"",118,54558.0,0,"",21,"",0.0460,""
"GSWS06_118",2016-06-27 08:14:45,58,106.00,"",118,54558.0,0,"",22,"",0.0460,""
"GSWS06_118",2016-06-27 21:32:45,59,106.00,"",118,54558.0,0,"",23,"",0.0450,""
"GSWS06_118",2016-06-28 10:50:45,60,106.00,"",118,54558.0,0,"",24,"",0.0460,""
"GSWS06_118",2016-06-29 00:08:45,61,106.00,"",118,54558.0,0,"",25,"",0.0440,""
"GSWS06_118",2016-06-29 07:57:45,62,106.00,"",118,54558.0,0,"",26,"",0.0450,""
"GSWS06_118",2016-06-29 13:26:45,63,106.00,"",118,54558.0,1,"",26,"",0.1100,""
"GSWS06_118",2016-06-30 02:44:45,64,106.00,"",118,54558.0,1,"",27,"",0.1100,""
"GSWS06_118",2016-06-30 16:02:45,65,106.00,"",118,54558.0,1,"",28,"",0.1070,""
"GSWS06_118",2016-07-01 05:20:45,66,106.00,"",118,54558.0,1,"",29,"",0.1130,""
"GSWS06_118",2016-07-01 18:38:45,67,106.00,"",118,54558.0,1,"",30,"",0.1100,""
"GSWS06_118",2016-07-02 07:56:45,68,106.00,"",118,54558.0,1,"",31,"",0.1090,""
"GSWS06_118",2016-07-02 21:14:45,69,106.00,"",118,54558.0,1,"",32,"",0.1060,""
"GSWS06_118",2016-07-03 10:32:45,70,106.00,"",118,54558.0,1,"",33,"",0.1070,""
"GSWS06_118",2016-07-03 23:50:45,71,106.00,"",118,54558.0,1,"",34,"",0.1050,""
"GSWS06_118",2016-07-04 13:08:45,72,106.00,"",118,54558.0,1,"",35,"",0.1040,""
"GSWS06_118",2016-07-05 02:26:45,73,106.00,"",118,54558.0,1,"",36,"",0.1040,""
"GSWS06_118",2016-07-05 15:44:45,74,106.00,"",118,54558.0,1,"",37,"",0.1020,""
"GSWS06_118",2016-07-06 05:02:45,75,106.00,"",118,54558.0,1,"",38,"",0.1030,""
"GSWS06_118",2016-07-06 12:00:00,76,106.00,"",118,54558.0,1,"",39,"",0.1030,""
"GSWS06_118",2016-07-06 18:20:45,77,106.00,"",118,54558.0,1,"",1,"",0.0960,""
"GSWS06_118",2016-07-07 07:38:45,78,106.00,"",118,54558.0,1,"",2,"",0.0980,""
"GSWS06_118",2016-07-07 20:56:45,79,106.00,"",118,54558.0,1,"",3,"",0.0950,""
"GSWS06_118",2016-07-08 10:14:45,80,106.00,"",118,54558.0,1,"",4,"",0.1070,""
"GSWS06_118",2016-07-08 23:32:45,81,106.00,"",118,54558.0,1,"",5,"",0.1490,""
"GSWS06_118",2016-07-09 12:50:45,82,106.00,"",118,54558.0,1,"",6,"",0.1140,""
"GSWS06_118",2016-07-10 02:08:45,83,106.00,"",118,54558.0,1,"",7,"",0.1070,""
"GSWS06_118",2016-07-10 15:26:45,84,106.00,"",118,54558.0,1,"",8,"",0.1180,""
"GSWS06_118",2016-07-11 04:44:45,85,106.00,"",118,54558.0,1,"",9,"",0.1170,""
"GSWS06_118",2016-07-11 18:02:45,86,106.00,"",118,54558.0,1,"",10,"",0.1070,""
"GSWS06_118",2016-07-12 07:20:45,87,106.00,"",118,54558.0,1,"",11,"",0.1070,""
"GSWS06_118",2016-07-12 20:38:45,88,106.00,"",118,54558.0,1,"",12,"",0.1020,""
"GSWS06_118",2016-07-13 09:56:45,89,106.00,"",118,54558.0,1,"",13,"",0.1040,""
"GSWS06_118",2016-07-13 23:14:45,90,106.00,"",118,54558.0,1,"",14,"",0.1010,""
"GSWS06_118",2016-07-14 12:32:45,91,106.00,"",118,54558.0,1,"",15,"",0.1010,""
"GSWS06_118",2016-07-15 01:50:45,92,106.00,"",118,54558.0,1,"",16,"",0.0980,""
"GSWS06_118",2016-07-15 15:08:45,93,106.00,"",118,54558.0,1,"",17,"",0.0970,""
"GSWS06_118",2016-07-16 04:26:45,94,106.00,"",118,54558.0,1,"",18,"",0.0970,""
"GSWS06_118",2016-07-16 17:44:45,95,106.00,"",118,54558.0,1,"",19,"",0.0950,""
"GSWS06_118",2016-07-17 07:02:45,96,106.00,"",118,54558.0,1,"",20,"",0.0930,""
"GSWS06_118",2016-07-17 20:20:45,97,106.00,"",118,54558.0,1,"",21,"",0.0900,""
"GSWS06_118",2016-07-18 09:38:45,98,106.00,"",118,54558.0,1,"",22,"",0.0920,""
"GSWS06_118",2016-07-18 22:56:45,99,106.00,"",118,54558.0,1,"",23,"",0.0900,""
"GSWS06_118",2016-07-19 12:14:45,100,106.00,"",118,54558.0,1,"",24,"",0.0900,""